Weather History for Sauk Centre, MN

Change the Weather History Date:

Wednesday, January 30, 2013

  Actual Average (KGHW) Record (KGHW)
Temperature  
Mean Temperature 12 °F -  
Max Temperature 21 °F 26 °F 44 °F (1992)
Min Temperature 3 °F 1 °F -28 °F (1950)
Degree Days  
Heating Degree Days 53    
Moisture  
Dew Point 5 °F    
Average Humidity 79    
Maximum Humidity 86    
Minimum Humidity 72    
Precipitation  
Precipitation 0.00 in - - ()
Sea Level Pressure  
Sea Level Pressure 29.74 in    
Wind  
Wind Speed 17 mph (NW)    
Max Wind Speed 22 mph    
Max Gust Speed 28 mph    
Visibility 9 miles    
Events Snow    
Averages and records for this station are not official NWS values.
T = Trace of Precipitation, MM = Missing Value Source: NWS Daily Summary

Daily Weather History Graph

Daily Weather History Graph

Search for Another Location

Airport:

Trip Planner

Search our weather history database for the weather conditions in past years. The results will help you decide how hot, cold, wet, or windy it might be!

Date:

Astronomy

Jan. 30, 2013 Rise Set
Actual Time 7:43 AM CST 5:23 PM CST
Civil Twilight 7:11 AM CST 5:55 PM CST
Nautical Twilight 6:35 AM CST 6:31 PM CST
Astronomical Twilight 6:00 AM CST 7:06 PM CST
Moon 9:38 PM CST (1/30) 8:57 AM CST (1/30)
Length of Visible Light 10h 43m
Length of Day
9h 40m
Waning Gibbous, 87% of the Moon is Illuminated
Jan 30
Waning Gibbous
Feb 3
Last Quarter
Feb 10
New
Feb 17
First Quarter
Feb 25
Full

Hourly Weather History & Observations

Time (CST) Temp. Windchill Dew Point Humidity Pressure Visibility Wind Dir Wind Speed Gust Speed Precip Events Conditions
12:15 AM 21.2 °F 8.9 °F 17.6 °F 86% 29.78 in 10.0 mi NW 12.7 mph - N/A   Overcast
12:35 AM 21.2 °F 6.8 °F 17.6 °F 86% 29.77 in 10.0 mi NNW 17.3 mph - N/A   Overcast
12:55 AM 19.4 °F 4.1 °F 14.0 °F 80% 29.76 in 10.0 mi NNW 18.4 mph - N/A   Overcast
1:15 AM 17.6 °F 3.2 °F 14.0 °F 86% 29.76 in 10.0 mi NNW 15.0 mph 23.0 mph N/A   Overcast
1:35 AM 17.6 °F 3.2 °F 14.0 °F 86% 29.76 in 10.0 mi NNW 15.0 mph 20.7 mph N/A   Overcast
1:55 AM 17.6 °F 1.3 °F 12.2 °F 79% 29.74 in 10.0 mi NNW 19.6 mph 24.2 mph N/A   Overcast
2:15 AM 15.8 °F -0.2 °F 12.2 °F 86% 29.74 in 10.0 mi NNW 17.3 mph - N/A   Overcast
2:35 AM 15.8 °F 2.7 °F 12.2 °F 86% 29.75 in 10.0 mi NW 11.5 mph - N/A   Overcast
2:55 AM 14.0 °F -2.5 °F 10.4 °F 86% 29.75 in 10.0 mi NNW 17.3 mph - N/A Snow Light Snow
3:15 AM 14.0 °F -1.4 °F 10.4 °F 86% 29.74 in 10.0 mi NW 15.0 mph 20.7 mph N/A   Overcast
3:35 AM 14.0 °F -0.8 °F 10.4 °F 86% 29.76 in 10.0 mi NNW 13.8 mph - N/A   Overcast
3:55 AM 14.0 °F -3.4 °F 10.4 °F 86% 29.75 in 10.0 mi NW 19.6 mph - N/A   Overcast
4:15 AM 14.0 °F -3.0 °F 8.6 °F 79% 29.75 in 10.0 mi NW 18.4 mph - N/A   Overcast
4:35 AM 12.2 °F -4.8 °F 8.6 °F 85% 29.75 in 10.0 mi NW 17.3 mph - N/A   Overcast
4:55 AM 12.2 °F -5.8 °F 8.6 °F 85% 29.74 in 10.0 mi NW 19.6 mph 24.2 mph N/A   Overcast
5:15 AM 12.2 °F -5.8 °F 8.6 °F 85% 29.74 in 10.0 mi NW 19.6 mph - N/A   Overcast
5:35 AM 12.2 °F -5.8 °F 6.8 °F 79% 29.74 in 10.0 mi NW 19.6 mph - N/A   Overcast
5:55 AM 12.2 °F -6.7 °F 6.8 °F 79% 29.74 in 10.0 mi NW 21.9 mph - N/A   Overcast
6:15 AM 12.2 °F -5.8 °F 6.8 °F 79% 29.74 in 10.0 mi NW 19.6 mph 24.2 mph N/A   Overcast
6:35 AM 12.2 °F -4.8 °F 6.8 °F 79% 29.73 in 10.0 mi NW 17.3 mph 25.3 mph N/A   Overcast
7:15 AM 10.4 °F -6.6 °F 5.0 °F 79% 29.73 in 10.0 mi NNW 16.1 mph - N/A Snow Light Snow
7:35 AM 10.4 °F -8.2 °F 5.0 °F 79% 29.73 in 10.0 mi NW 19.6 mph - N/A   Overcast
7:55 AM 10.4 °F -8.6 °F 5.0 °F 79% 29.73 in 7.0 mi NW 20.7 mph 25.3 mph N/A   Overcast
8:15 AM 10.4 °F -7.7 °F 5.0 °F 79% 29.72 in 10.0 mi NW 18.4 mph 23.0 mph N/A   Overcast
8:35 AM 10.4 °F -8.2 °F 5.0 °F 79% 29.72 in 10.0 mi NNW 19.6 mph - N/A   Overcast
8:55 AM 10.4 °F -8.2 °F 5.0 °F 79% 29.72 in 10.0 mi NW 19.6 mph 25.3 mph N/A   Overcast
9:15 AM 10.4 °F -8.2 °F 5.0 °F 79% 29.73 in 7.0 mi NW 19.6 mph 24.2 mph N/A   Overcast
9:35 AM 10.4 °F -7.7 °F 5.0 °F 79% 29.73 in 7.0 mi NW 18.4 mph 21.9 mph N/A Snow Light Snow
9:55 AM 10.4 °F -6.0 °F 5.0 °F 79% 29.73 in 10.0 mi NW 15.0 mph 21.9 mph N/A   Overcast
10:15 AM 10.4 °F -6.0 °F 5.0 °F 79% 29.74 in 10.0 mi NW 15.0 mph 21.9 mph N/A   Overcast
10:35 AM 10.4 °F -6.0 °F 5.0 °F 79% 29.75 in 10.0 mi NW 15.0 mph 23.0 mph N/A   Overcast
10:55 AM 10.4 °F -7.2 °F 5.0 °F 79% 29.75 in 10.0 mi NW 17.3 mph 20.7 mph N/A   Overcast
11:15 AM 10.4 °F -5.4 °F 5.0 °F 79% 29.75 in 10.0 mi NW 13.8 mph - N/A   Overcast
11:35 AM 12.2 °F -5.3 °F 5.0 °F 73% 29.75 in 10.0 mi NW 18.4 mph 23.0 mph N/A   Overcast
11:55 AM 10.4 °F -8.2 °F 5.0 °F 79% 29.73 in 7.0 mi NW 19.6 mph 23.0 mph N/A   Overcast
12:15 PM 12.2 °F -3.1 °F 5.0 °F 73% 29.72 in 10.0 mi NW 13.8 mph 21.9 mph N/A   Overcast
12:35 PM 12.2 °F -4.3 °F 5.0 °F 73% 29.72 in 10.0 mi NW 16.1 mph - N/A   Overcast
12:55 PM 12.2 °F -4.3 °F 5.0 °F 73% 29.72 in 10.0 mi NW 16.1 mph - N/A   Overcast
1:15 PM 12.2 °F -4.8 °F 5.0 °F 73% 29.72 in 10.0 mi NW 17.3 mph 23.0 mph N/A   Overcast
1:35 PM 12.2 °F -4.8 °F 5.0 °F 73% 29.72 in 7.0 mi WNW 17.3 mph - N/A   Overcast
1:55 PM 10.4 °F -7.2 °F 5.0 °F 79% 29.71 in 7.0 mi NW 17.3 mph - N/A   Overcast
2:15 PM 10.4 °F -6.6 °F 5.0 °F 79% 29.71 in 10.0 mi NW 16.1 mph - N/A   Overcast
2:35 PM 12.2 °F -6.3 °F 5.0 °F 73% 29.71 in 10.0 mi NW 20.7 mph - N/A   Overcast
2:55 PM 10.4 °F -8.2 °F 5.0 °F 79% 29.71 in 10.0 mi NW 19.6 mph 25.3 mph N/A   Overcast
3:15 PM 10.4 °F -8.2 °F 5.0 °F 79% 29.72 in 10.0 mi WNW 19.6 mph 24.2 mph N/A   Overcast
3:35 PM 10.4 °F -8.2 °F 5.0 °F 79% 29.72 in 10.0 mi NW 19.6 mph 24.2 mph N/A   Overcast
3:55 PM 10.4 °F -8.2 °F 5.0 °F 79% 29.72 in 10.0 mi NW 19.6 mph - N/A   Overcast
4:15 PM 10.4 °F -7.2 °F 3.2 °F 73% 29.72 in 10.0 mi NW 17.3 mph - N/A   Overcast
4:35 PM 10.4 °F -7.7 °F 3.2 °F 73% 29.73 in 10.0 mi NW 18.4 mph - N/A   Overcast
4:55 PM 10.4 °F -7.2 °F 3.2 °F 73% 29.73 in 10.0 mi NW 17.3 mph - N/A   Overcast
5:15 PM 10.4 °F -6.6 °F 3.2 °F 73% 29.73 in 10.0 mi NW 16.1 mph 21.9 mph N/A   Overcast
5:35 PM 8.6 °F -10.0 °F 3.2 °F 79% 29.73 in 4.0 mi NW 18.4 mph 25.3 mph N/A   Haze
5:55 PM 8.6 °F -11.0 °F 3.2 °F 79% 29.73 in 5.0 mi NW 20.7 mph 27.6 mph N/A   Haze
6:15 PM 8.6 °F -9.5 °F 3.2 °F 79% 29.73 in 10.0 mi NW 17.3 mph 23.0 mph N/A   Overcast
6:35 PM 8.6 °F -7.7 °F 3.2 °F 79% 29.74 in 10.0 mi NW 13.8 mph 23.0 mph N/A   Overcast
6:55 PM 8.6 °F -10.5 °F 1.4 °F 73% 29.73 in 10.0 mi NW 19.6 mph - N/A   Overcast
7:15 PM 8.6 °F -6.3 °F 3.2 °F 79% 29.73 in 10.0 mi NW 11.5 mph - N/A   Overcast
7:35 PM 8.6 °F -10.0 °F 3.2 °F 79% 29.74 in 10.0 mi WNW 18.4 mph - N/A   Overcast
7:55 PM 8.6 °F -7.7 °F 1.4 °F 73% 29.74 in 10.0 mi WNW 13.8 mph 18.4 mph N/A   Overcast
8:15 PM 8.6 °F -7.7 °F 1.4 °F 73% 29.74 in 10.0 mi WNW 13.8 mph 23.0 mph N/A   Overcast
8:35 PM 6.8 °F -10.7 °F 1.4 °F 79% 29.74 in 10.0 mi NW 15.0 mph 20.7 mph N/A   Overcast
8:55 PM 5.0 °F -13.6 °F 1.4 °F 85% 29.75 in 7.0 mi WNW 16.1 mph 21.9 mph N/A   Overcast
9:15 PM 5.0 °F -13.6 °F 1.4 °F 85% 29.75 in 7.0 mi WNW 16.1 mph 21.9 mph N/A   Overcast
9:35 PM 5.0 °F -14.2 °F -0.4 °F 78% 29.75 in 5.0 mi WNW 17.3 mph 25.3 mph N/A   Haze
10:15 PM 3.2 °F -14.6 °F -0.4 °F 85% 29.76 in 10.0 mi WNW 13.8 mph 20.7 mph N/A   Overcast
10:35 PM 3.2 °F -15.9 °F -2.2 °F 78% 29.77 in 10.0 mi WNW 16.1 mph 21.9 mph N/A   Overcast
10:55 PM 3.2 °F -15.9 °F -2.2 °F 78% 29.77 in 10.0 mi NW 16.1 mph - N/A   Overcast
11:15 PM 3.2 °F -14.6 °F -2.2 °F 78% 29.77 in 10.0 mi NW 13.8 mph - N/A   Overcast
11:35 PM 3.2 °F -16.5 °F -4.0 °F 72% 29.77 in 10.0 mi NW 17.3 mph - N/A   Overcast
11:55 PM 3.2 °F -15.3 °F -4.0 °F 72% 29.77 in 10.0 mi NW 15.0 mph 25.3 mph N/A   Overcast